Weather Roundup
Issued by NWS

Home | Current Version | Previous Version | Graphics & Text | Print | Product List | Glossary Off
Versions: 1 2 3 4 5 6 7 8 9 10 11 12 13 14 15 16 17 18 19 20 21 22 23 24 25 26 27 28 29 30 31 32 33 34 35 36 37 38 39 40 41 42 43 44 45 46 47 48 49 50

000
NZUS93 KARX 010410
HRRWXR

CURRENT HOURLY OBSERVATIONS ACROSS
MUCH OF THE UPPER MISSISSIPPI VALLEY
NATIONAL WEATHER SERVICE LA CROSSE WI
1100 PM CDT SAT APR 30 2016


...SOUTHEAST MINNESOTA...


CITY           SKY/WX    TMP DP  RH WIND       PRES   REMARKS
ROCHESTER      LGT RAIN  42  40  92 E13       30.06R
ROCHESTER/MAYO CLOUDY    43  40  91 NE5       30.07S
WINONA         DRIZZLE   45  39  81 E5        30.08R
AUSTIN         LGT RAIN  43  37  81 E17       30.04S
ALBERT LEA     CLOUDY    43  43 100 NE13      30.05R
DODGE CENTER   DRIZZLE   41  41 100 NE10      30.07R
PRESTON        LGT RAIN  40  38  93 NE5       30.05S
OWATONNA       DRIZZLE   45  39  81 NE8       30.08S
FARIBAULT      CLOUDY    45  43  93 NE5       30.09R
$$

...ELSEWHERE IN MINNESOTA...


CITY           SKY/WX    TMP DP  RH WIND       PRES   REMARKS
MINNEAPOLIS    CLOUDY    48  29  47 NE14      30.11R
INTNL FALLS    CLEAR     44  28  53 NE5       30.25S
DULUTH         CLOUDY    38  26  62 E12       30.22S WCI  30
RED WING       CLOUDY    48  36  61 CALM      30.09R
REDWOOD FALLS  CLOUDY    49  34  56 NE7       30.10R
MANKATO        CLOUDY    45  39  81 NE7       30.09R
WORTHINGTON    LGT RAIN  43  40  89 E18G25    30.06R
FAIRMONT       CLOUDY    43  34  70 NE14      30.06R
$$

...SOUTHWEST WISCONSIN...


CITY           SKY/WX    TMP DP  RH WIND       PRES   REMARKS
LA CROSSE      LGT RAIN  44  41  89 W3        30.06R
PRAIRIE DU CHI CLOUDY    44  41  89 NE6       30.00F FOG
BOSCOBEL       CLOUDY    45  45 100 NE6       30.02S
LONE ROCK      CLOUDY    46  40  79 NE12      30.02F
PLATTEVILLE    CLOUDY    43  42  96 NE14G22   29.97R
FORT MC COY    LGT RAIN  44  40  85 NE5       30.06S
CAMP DOUGLAS   LGT RAIN  44  44 100 NE7       30.05S
MAUSTON-NEW LI NOT AVBL
VIROQUA        CLOUDY    42  40  94 E14G22    30.03S
WIS DELLS      LGT RAIN  42  40  90 NE6       30.03S
$$

...ELSEWHERE IN WISCONSIN...


CITY           SKY/WX    TMP DP  RH WIND       PRES   REMARKS
MILWAUKEE      CLOUDY    44  42  93 NE15      29.97F
MADISON        DRIZZLE   43  40  89 NE10      30.00F
GREEN BAY      CLOUDY    47  35  63 NE25G35   30.06S
EAU CLAIRE     CLOUDY    49  35  58 NE6       30.08R
BLACK RVR FLS  LGT RAIN  44  40  86 E7        30.07S
MEDFORD        CLOUDY    48  32  55 NE13      30.08R
WAUSAU         CLOUDY    51  31  46 NE10      30.06S
WIS RAPIDS     CLOUDY    49  32  52 E8        30.07S
MARSHFIELD     CLOUDY    48  33  56 E6        30.06R
RICE LAKE      CLOUDY    44  32  63 N16G22    30.13S
$$

...NORTHEAST IOWA...


CITY           SKY/WX    TMP DP  RH WIND       PRES   REMARKS
WATERLOO       CLOUDY    44  41  89 NE17      29.97R
DUBUQUE        CLOUDY    43  41  93 NE16      29.95S FOG
DECORAH        CLOUDY    43  43 100 NE15G23   30.00S FOG
MASON CITY     LGT RAIN  42  40  92 NE18      30.02R FOG
CHARLES CITY   CLOUDY    45  43  93 NE18G25   30.00R
OELWEIN        CLOUDY    43  43 100 E20G26    29.96R
$$

...ELSEWHERE IN IOWA...


CITY           SKY/WX    TMP DP  RH WIND       PRES   REMARKS
DES MOINES     LGT RAIN  47  43  86 E12       29.91R FOG
IOWA CITY      CLOUDY    45  44  97 NE16G24   29.92R FOG
FORT DODGE     CLOUDY    43  39  87 NE20G25   29.97R
MARSHALLTOWN   CLOUDY    44  42  93 E18G26    29.93R
CEDAR RAPIDS   CLOUDY    44  44 100 NE15G26   29.91F
$$

...NORTHERN ILLINOIS...


CITY           SKY/WX    TMP DP  RH WIND       PRES   REMARKS
CHICAGO-OHARE  DRIZZLE   45  44  97 NE15      29.92F FOG
CHICAGO-MIDWAY DRIZZLE   47  44  90 NE16      29.91F FOG
MOLINE         CLOUDY    47  43  86 E16       29.89R
ROCKFORD       DRIZZLE   46  43  89 NE14      29.95S
PEORIA         CLOUDY    50  48  93 NE13      29.84S FOG
$$

NOTE: "FAIR" INDICATES FEW OR NO CLOUDS BELOW 12,000 FEET WITH NO
SIGNIFICANT WEATHER AND/OR OBSTRUCTIONS TO VISIBILITY. WIND
SPEEDS ARE IN MILES-PER-HOUR.




USA.gov is the U.S. government's official web portal to all federal, state and local government web resources and services.